• In India
  • List of Countries
  • For 7 days
  • Water Temperature
  • Satellite Maps
  • Weather Map
  • Weather Widgets
  • user-avatar
    Login

    Hourly Weather Aleksandrów Kujawski

    Today, 27 May, Sunday

    Time Temperature Precipitation Wind Pressure Humidity
    00:00 +16°C° 0 mm 2 mps 760 mmHg 93%
    01:00 +15°C° 0 mm 2 mps 760 mmHg 94%
    02:00 +15°C° 0 mm 2 mps 760 mmHg 95%
    03:00 +15°C° 0 mm 2 mps 760 mmHg 95%
    04:00 +14°C° 0 mm 1 mps 760 mmHg 96%
    05:00 +16°C° 0 mm 1 mps 760 mmHg 91%
    06:00 +18°C° 0 mm 2 mps 760 mmHg 87%
    07:00 +19°C° 0 mm 2 mps 760 mmHg 81%
    08:00 +21°C° 0 mm 2 mps 760 mmHg 75%
    09:00 +23°C° 0 mm 2 mps 760 mmHg 69%
    10:00 +25°C° 0 mm 2 mps 760 mmHg 62%
    11:00 +26°C° 0 mm 2 mps 760 mmHg 58%
    12:00 +27°C° 0 mm 2 mps 760 mmHg 54%
    13:00 +27°C° 0 mm 2 mps 760 mmHg 51%
    14:00 +27°C° 0 mm 2 mps 760 mmHg 51%
    15:00 +28°C° 0 mm 2 mps 760 mmHg 51%
    16:00 +28°C° 0 mm 2 mps 760 mmHg 51%
    17:00 +26°C° 0.1 mm 2 mps 760 mmHg 59%
    18:00 +25°C° 0.1 mm 2 mps 760 mmHg 66%
    19:00 +24°C° 0.1 mm 2 mps 760 mmHg 74%
    20:00 +21°C° 0 mm 2 mps 760 mmHg 78%
    21:00 +20°C° 0 mm 3 mps 760 mmHg 82%
    22:00 +19°C° 0 mm 3 mps 760 mmHg 86%
    23:00 +18°C° 0 mm 3 mps 761 mmHg 86%

    Tomorrow, 28 May, Monday

    Time Temperature Precipitation Wind Pressure Humidity
    00:00 +18°C° 0 mm 3 mps 761 mmHg 87%
    01:00 +17°C° 0 mm 3 mps 761 mmHg 88%
    02:00 +17°C° 0 mm 3 mps 761 mmHg 89%
    03:00 +17°C° 0 mm 3 mps 761 mmHg 90%
    04:00 +17°C° 0 mm 3 mps 761 mmHg 90%
    05:00 +18°C° 0 mm 3 mps 761 mmHg 86%
    06:00 +20°C° 0 mm 3 mps 761 mmHg 81%
    07:00 +21°C° 0 mm 3 mps 761 mmHg 77%
    08:00 +23°C° 0 mm 4 mps 761 mmHg 70%
    09:00 +25°C° 0 mm 4 mps 761 mmHg 64%
    10:00 +27°C° 0 mm 4 mps 761 mmHg 58%
    11:00 +27°C° 0 mm 5 mps 761 mmHg 56%
    12:00 +28°C° 0 mm 5 mps 761 mmHg 53%
    13:00 +28°C° 0 mm 5 mps 761 mmHg 51%
    14:00 +28°C° 0 mm 5 mps 761 mmHg 51%
    15:00 +28°C° 0 mm 5 mps 760 mmHg 52%
    16:00 +28°C° 0 mm 5 mps 760 mmHg 53%
    17:00 +26°C° 0 mm 4 mps 760 mmHg 58%
    18:00 +25°C° 0 mm 4 mps 760 mmHg 64%
    19:00 +24°C° 0 mm 3 mps 760 mmHg 70%
    20:00 +21°C° 0 mm 3 mps 760 mmHg 72%
    21:00 +20°C° 0 mm 3 mps 761 mmHg 75%
    22:00 +19°C° 0 mm 3 mps 761 mmHg 77%
    23:00 +18°C° 0 mm 3 mps 761 mmHg 78%

    Day after tomorrow, 29 May, Tuesday

    Time Temperature Precipitation Wind Pressure Humidity
    00:00 +17°C° 0 mm 3 mps 761 mmHg 79%
    01:00 +17°C° 0 mm 3 mps 761 mmHg 80%
    02:00 +16°C° 0 mm 3 mps 760 mmHg 82%
    03:00 +16°C° 0 mm 3 mps 760 mmHg 83%
    04:00 +14°C° 0 mm 3 mps 760 mmHg 85%
    05:00 +17°C° 0 mm 4 mps 760 mmHg 79%
    06:00 +19°C° 0 mm 5 mps 760 mmHg 73%
    07:00 +20°C° 0 mm 5 mps 760 mmHg 67%
    08:00 +22°C° 0 mm 6 mps 760 mmHg 63%
    09:00 +23°C° 0 mm 6 mps 760 mmHg 59%
    10:00 +24°C° 0 mm 6 mps 759 mmHg 54%
    11:00 +26°C° 0 mm 6 mps 759 mmHg 53%
    12:00 +27°C° 0 mm 6 mps 758 mmHg 52%
    13:00 +27°C° 0 mm 6 mps 758 mmHg 51%
    14:00 +28°C° 0 mm 6 mps 758 mmHg 52%
    15:00 +28°C° 0 mm 5 mps 757 mmHg 53%
    16:00 +28°C° 0 mm 5 mps 757 mmHg 54%
    17:00 +27°C° 0 mm 5 mps 756 mmHg 59%
    18:00 +25°C° 0 mm 5 mps 756 mmHg 64%
    19:00 +23°C° 0 mm 4 mps 756 mmHg 69%
    20:00 +22°C° 0 mm 4 mps 756 mmHg 71%
    21:00 +20°C° 0 mm 4 mps 756 mmHg 72%
    22:00 +19°C° 0 mm 4 mps 756 mmHg 74%
    23:00 +18°C° 0 mm 4 mps 756 mmHg 77%

    30 May, Wednesday

    Time Temperature Precipitation Wind Pressure Humidity
    00:00 +18°C° 0 mm 3 mps 756 mmHg 81%
    01:00 +17°C° 0 mm 3 mps 756 mmHg 84%
    02:00 +16°C° 0 mm 3 mps 756 mmHg 87%
    03:00 +16°C° 0 mm 3 mps 756 mmHg 89%
    04:00 +16°C° 0 mm 3 mps 755 mmHg 92%
    05:00 +17°C° 0 mm 3 mps 755 mmHg 87%
    06:00 +19°C° 0 mm 4 mps 755 mmHg 82%
    07:00 +20°C° 0 mm 4 mps 755 mmHg 77%
    08:00 +22°C° 0 mm 4 mps 755 mmHg 72%
    09:00 +25°C° 0 mm 4 mps 755 mmHg 66%
    10:00 +26°C° 0 mm 4 mps 755 mmHg 61%
    11:00 +27°C° 0.1 mm 4 mps 755 mmHg 57%
    12:00 +28°C° 0.1 mm 4 mps 754 mmHg 54%
    13:00 +29°C° 0.1 mm 4 mps 754 mmHg 50%
    14:00 +29°C° 0 mm 4 mps 754 mmHg 51%
    15:00 +28°C° 0 mm 3 mps 753 mmHg 52%
    16:00 +28°C° 0 mm 3 mps 753 mmHg 54%
    17:00 +27°C° 0 mm 2 mps 753 mmHg 59%
    18:00 +26°C° 0 mm 2 mps 753 mmHg 64%
    19:00 +25°C° 0 mm 1 mps 753 mmHg 69%
    20:00 +24°C° 0.1 mm 1 mps 753 mmHg 72%
    21:00 +21°C° 0.1 mm 2 mps 753 mmHg 76%
    22:00 +20°C° 0.1 mm 2 mps 753 mmHg 79%
    23:00 +19°C° 0.2 mm 2 mps 753 mmHg 82%

    31 May, Thursday

    Time Temperature Precipitation Wind Pressure Humidity
    00:00 +19°C° 0.2 mm 2 mps 753 mmHg 86%
    01:00 +18°C° 0.2 mm 2 mps 753 mmHg 89%
    02:00 +18°C° 0 mm 2 mps 753 mmHg 90%
    03:00 +17°C° 0 mm 2 mps 752 mmHg 91%
    04:00 +17°C° 0 mm 2 mps 752 mmHg 92%
    05:00 +19°C° 0.1 mm 3 mps 752 mmHg 88%
    06:00 +20°C° 0.1 mm 3 mps 753 mmHg 83%
    07:00 +21°C° 0.1 mm 4 mps 753 mmHg 79%
    08:00 +23°C° 0.4 mm 4 mps 753 mmHg 72%
    09:00 +25°C° 0.4 mm 4 mps 753 mmHg 66%
    10:00 +26°C° 0.4 mm 5 mps 753 mmHg 60%
    11:00 +26°C° 0.7 mm 5 mps 753 mmHg 60%
    12:00 +26°C° 0.7 mm 6 mps 753 mmHg 61%
    13:00 +26°C° 0.7 mm 6 mps 753 mmHg 61%
    14:00 +26°C° 0.1 mm 7 mps 753 mmHg 60%
    15:00 +24°C° 0.1 mm 7 mps 753 mmHg 60%
    16:00 +24°C° 0.1 mm 7 mps 753 mmHg 59%
    17:00 +22°C° 0 mm 7 mps 753 mmHg 62%
    18:00 +21°C° 0 mm 7 mps 754 mmHg 65%
    19:00 +19°C° 0 mm 6 mps 754 mmHg 69%
    20:00 +17°C° 0 mm 6 mps 754 mmHg 67%
    21:00 +16°C° 0 mm 6 mps 755 mmHg 66%
    22:00 +15°C° 0 mm 6 mps 756 mmHg 64%
    23:00 +15°C° 0 mm 6 mps 756 mmHg 66%

    1 June, Friday

    Time Temperature Precipitation Wind Pressure Humidity
    00:00 +14°C° 0 mm 6 mps 756 mmHg 67%
    01:00 +13°C° 0 mm 5 mps 756 mmHg 68%
    02:00 +13°C° 0 mm 5 mps 757 mmHg 70%
    03:00 +12°C° 0 mm 5 mps 757 mmHg 71%
    04:00 +10°C° 0 mm 5 mps 757 mmHg 72%
    05:00 +12°C° 0 mm 5 mps 758 mmHg 68%
    06:00 +13°C° 0 mm 5 mps 758 mmHg 64%
    07:00 +14°C° 0 mm 6 mps 759 mmHg 60%
    08:00 +15°C° 0 mm 6 mps 759 mmHg 55%
    09:00 +16°C° 0 mm 6 mps 759 mmHg 50%
    10:00 +17°C° 0 mm 6 mps 759 mmHg 45%
    11:00 +17°C° 0 mm 6 mps 759 mmHg 44%
    12:00 +19°C° 0 mm 6 mps 759 mmHg 44%
    13:00 +19°C° 0 mm 6 mps 759 mmHg 43%
    14:00 +19°C° 0 mm 6 mps 759 mmHg 45%
    15:00 +19°C° 0 mm 5 mps 759 mmHg 47%
    16:00 +19°C° 0 mm 5 mps 759 mmHg 49%
    17:00 +17°C° 0 mm 5 mps 759 mmHg 55%
    18:00 +17°C° 0 mm 4 mps 760 mmHg 61%
    19:00 +15°C° 0 mm 4 mps 760 mmHg 67%
    20:00 +14°C° 0 mm 4 mps 760 mmHg 70%
    21:00 +13°C° 0 mm 4 mps 760 mmHg 73%
    22:00 +11°C° 0 mm 4 mps 761 mmHg 77%
    23:00 +11°C° 0 mm 3 mps 761 mmHg 78%
    Show more